Location: Tauranga
(37.6860°S, 176.1670°E)
Time: 20:31:44
(UTC+12:00)

Resurs 1-3 - Pass Details

Date: 24 January 2019
Orbit: 630 x 633 km, 98.0° (Epoch: 19 April)

Event Time Altitude Azimuth Distance (km) Brightness Sun altitude
Rises 21:49:45 0° 162° (SSE) 2,960 7.3 -13.5°
Reaches altitude 10° 21:52:02 10° 156° (SSE) 2,043 6.4 -13.9°
Maximum altitude 21:56:22 50° 80° (E) 813 3.8 -14.5°
Enters shadow 21:59:39 16° 9° (N) 1,639 5.3 -15.0°
